map of EBB home
Great Circle Mapper logo
EBB - Airport
Location
City:  Entebbe, Uganda
Near (Alt.):Kampala
Name:Entebbe International Airport
ICAO / IATA:HUEN / EBB

Details
Type:Airport (Aerodrome, Airfield)
Use:Public/Civil, Military, International (customs port of entry)
Latitude:002'33"N (0.042386)
Longitude:3226'37"E (32.443503)
Datum:WGS 1984
Elevation:3782 ft (1153 m)
Runways:2
Longest:12000 × 150 ft (3658 × 45.5 m), paved

Time
Time Zone:UTC+3
Local Time:

Weather
TAF:HUEN 280950Z 2812/2918 16012KT 9000 -TS OR -RA SCT022 FEW024CB BK N140
FM281600 23005KT 9999 FEW021 FEW023CB
BECMG 2821/2824 33004KT F EW019 FEW021CB SCT120
TEMPO 2902/2907 VRB11KT 8000 -TSRA SCT017 FEW01 9CB OVC090
BECMG 2908/2912 17012KT 9999 FEW024 FEW026CB BKN150 FM 291 600 23005KT FEW021 FEW023CB

Related Locations
Nearby:
Farthest:CXI: 11758 mi / 18923 km
Christmas Island (Kiritimati) [Cassidy Intl], KI

Find:

   beyond  
but within

Other Information
Maps:
NOTAMs:
Links:
Sources:

  
flag of Uganda   

Sectional Chart

Flight Planning
at skyvector.com

Satellite Image

Google Maps Satellite View

 

Copyright © 2004-2014 Karl L. Swartz. All rights reserved.
The Great Circle Mapper name and logo are trademarks of the Great Circle Mapper.
All other trademarks mentioned herein belong to their respective owners.
Please see credits for attibutions and further copyright information.

  Follow gcmap on Facebook Follow gcmap on Twitter

hCard Microformat

Geo Microformat